Location: Balsareny
(41.8670°N, 1.8830°E)
Time: 03:40:38
(UTC+01:00)

N. Korean satellite - Pass Details

Date: 01 December 2021
Orbit: 447 x 491 km, 97.3° (Epoch: 23 January)

Event Time Altitude Azimuth Distance (km) Brightness Sun altitude
Rises 05:42:48 0° 20° (NNE) 2,468 10.3 -25.0°
Reaches altitude 10° 05:44:57 10° 29° (NNE) 1,586 9.4 -24.6°
Maximum altitude 05:48:08 37° 98° (E) 720 7.9 -24.1°
Drops below altitude 10° 05:51:15 10° 167° (SSE) 1,566 9.4 -23.5°
Sets 05:53:22 0° 176° (S) 2,432 10.3 -23.1°
